Torna al catalogo

STARLINK-5406

AttivoComunicazioniVLEO
NORAD 54860·PAYLOAD·🇺🇸 United States

Lanciato Dec 28, 2022 da Cape Canaveral Space Force Station

Loading…

Prossimi Passaggi (prossime 24 ore)

TLE

AggiornatoSource: CelesTrak SupGP

Epoca: Sep 15, 2026, 03:03 UTC

1 54860C 22177AS  26258.12756944  .00056644  00000+0  20515-2 0  2580
2 54860  43.0003 131.9399 0001224 268.4445 329.4927 15.27552833    10

Traccia STARLINK-5406 in tempo reale con AllMySat

Download on the App Store